STARLINK-36137 (67033 NORAD) Tracking and Keplerian Element Data

This shows tracking and keplerian element data for the satellite.

Feedback or suggestion? Click here.




ElementValue
Catalog67033
NameSTARLINK-36137
Epoch Orbit132
Epoch Day354.25003472
Epoch Year2025
RAAN136.2879
Inclination42.9997
Eccentricity0.0001696
Argument of Perigee262.0741
Mean Anonmoly326.4087
Mean Motion15.8859308
Decay Rate-0.01320502
L11 67033U 25294D 25354.25003472 -.01320502 00000+0 -51718-2 0 9991
L22 67033 42.9997 136.2879 0001696 262.0741 326.4087 15.88593080 1324



Live tracking and technical data element details for STARLINK-36137 (NORAD 67033). STARLINK-36137 can be tracked NOW for your location showing map with azimuth and elevation plus other details from your city location.







IsCatalogInMostPopularTable: catalog: 67033, numindb: 89
Update: records affected: 1



GetName: 67033 STARLINK-36137

Hit Count: updated at: Thu, 21 May 2026 11:26:43 GMT